Retour au catalogue

CSTP-4.4

ActifScienceSSO
NORAD 64895·PAYLOAD·🇷🇺 Russia
Ce nom de satellite n'a pas encore été confirmé par des sources officielles.

Lancé Jul 25, 2025 depuis Vostochny Cosmodrome

Loading…

Prochains Passages (prochaines 24 heures)

TLE

FraisSource: Space-Track

Époque: Sep 14, 2026, 13:16 UTC

1 64895U 25155V   26257.55288680  .00007528  00000-0  25491-3 0  9990
2 64895  97.4688 226.4854 0005942 203.9722 156.1243 15.30862247 94410

Suivez CSTP-4.4 en temps réel avec AllMySat

Download on the App Store